[[{"header":{"parameterUnit":"m.s-1","parameterCategory":1,"la1":30.2991,"la2":30.254,"lo1":-89.0895,"lo2":-89.0444,"dy":0.0017,"dx":0.0017,"nx":28,"ny":28,"refTime":"2024-05-22T09:00:00:Z","depth":0,"parameterNumber":2,"parameterNumberName":"U-component_of_WINDS"},"data":[0,0,0,0,0,0,0,0,0,0,0,0,0,0,0,0,0,0,0,0,0,0,0,0,0,0,0,0,0,0,0,0,0,0,0,0,0,0,0,0,0,0,0,0,0,0,0,0,0,0,0,0,0,0,0,0,0,0,-1.9457,-1.9456,0,-1.937,-1.9369,-1.9368,-1.9295,-1.9294,-1.9293,-1.9292,-1.9204,-1.9202,-1.92,0,0,0,0,0,0,0,0,0,0,0,0,0,-1.9559,-1.9557,-1.9457,-1.9456,-1.9454,-1.937,-1.9369,-1.9368,-1.9295,-1.9294,-1.9293,-1.9292,-1.9204,-1.9202,-1.92,0,0,0,0,0,0,0,0,0,0,0,0,0,-1.9497,-1.9557,-1.9457,-1.9408,-1.9403,-1.937,-1.9369,-1.9368,-1.9295,-1.9294,-1.9293,-1.9292,-1.9205,-1.9202,-1.92,-1.9209,0,0,-1.9193,-1.9192,0,0,0,0,0,0,0,0,-1.9501,-1.9494,-1.9416,-1.9411,-1.9405,-1.9342,-1.9372,-1.9314,-1.9295,-1.9336,-1.9292,-1.9291,-1.9251,-1.9244,-1.9231,-1.9205,-1.9201,-1.9192,-1.9191,-1.919,-1.9189,0,0,0,0,0,0,0,-1.9505,-1.9497,-1.9422,-1.9415,-1.9409,-1.939,-1.938,-1.9361,-1.9301,-1.9332,-1.9327,-1.9318,-1.9247,-1.9233,-1.9228,-1.92,-1.9192,-1.919,-1.9189,-1.9188,-1.9177,-1.9178,0,0,0,0,0,0,-1.9517,-1.9501,-1.9425,-1.942,-1.9451,-1.9389,-1.9378,-1.9364,-1.9301,-1.929,-1.9319,-1.9314,-1.9238,-1.9231,-1.9225,-1.9231,-1.919,-1.9188,-1.9186,-1.9176,-1.9178,-1.9179,0,0,0,0,0,0,-1.952,-1.9511,-1.9429,-1.9459,-1.9447,-1.9389,-1.9373,-1.9362,-1.9348,-1.9291,-1.928,-1.9315,-1.9237,-1.9228,-1.9214,-1.9227,-1.9187,-1.9184,-1.9175,-1.9177,-1.9178,-1.9244,0,0,0,0,0,0,-1.9523,-1.9512,-1.9515,-1.946,-1.9446,-1.9419,-1.9374,-1.9362,-1.9344,-1.9338,-1.9285,-1.9275,-1.9235,-1.9218,-1.9211,-1.9223,-1.9182,-1.9173,-1.9176,-1.9178,-1.924,-1.9248,-1.9254,0,0,0,0,0,-1.9527,-1.9537,-1.9516,-1.9507,-1.9448,-1.942,-1.9412,-1.9366,-1.9346,-1.9348,-1.9311,-1.9276,-1.9227,-1.9217,-1.9209,-1.922,-1.9172,-1.9175,-1.9177,-1.9237,-1.9246,-1.9254,0,0,0,0,0,0,-1.9596,-1.9529,-1.9504,-1.9497,-1.9465,-1.9408,-1.9409,-1.9378,-1.935,-1.9346,-1.929,-1.9279,-1.927,-1.9244,-1.9234,-1.9226,-1.9195,-1.9196,-1.9243,-1.9251,-1.9258,-1.9264,-1.918,0,0,0,0,0,-1.9611,-1.9593,-1.9536,-1.9535,-1.952,-1.9468,-1.9454,-1.9422,-1.9386,-1.9372,-1.9334,-1.93,-1.9277,-1.9263,-1.9238,-1.9237,-1.9224,-1.924,-1.9247,-1.9253,-1.9255,-1.9252,-1.9258,-1.9188,-1.9187,-1.9187,0,0,-1.964,-1.9601,-1.9594,-1.9548,-1.9519,-1.9502,-1.9457,-1.9441,-1.9428,-1.9369,-1.9353,-1.9324,-1.9283,-1.9275,-1.927,-1.9253,-1.9272,-1.9257,-1.9262,-1.926,-1.9255,-1.9262,-1.9268,-1.9189,-1.9189,-1.9189,0,0,-1.9685,-1.9655,-1.965,-1.9623,-1.9579,-1.9545,-1.9544,-1.9491,-1.947,-1.9453,-1.9408,-1.9392,-1.9354,-1.9326,-1.9307,-1.9343,-1.931,-1.9337,-1.9372,-1.937,-1.9376,-1.938,-1.9392,-1.9398,-1.9338,-1.9339,-1.9339,0,-1.9727,-1.9701,-1.9652,-1.9639,-1.962,-1.9567,-1.9562,-1.9537,-1.9488,-1.9477,-1.9458,-1.9409,-1.9377,-1.9362,-1.9371,-1.9357,-1.9354,-1.9342,-1.9379,-1.9383,-1.9386,-1.9397,-1.9402,-1.9342,-1.9342,-1.9341,-1.9341,0,-1.9754,-1.9737,-1.9738,-1.9693,-1.9674,-1.9665,-1.9616,-1.9603,-1.9572,-1.954,-1.9523,-1.9484,-1.945,-1.9444,-1.9414,-1.9425,-1.9416,-1.9389,-1.9357,-1.9398,-1.9407,-1.9411,-1.9347,-1.9346,-1.9345,-1.9344,0,0,-1.984,-1.9768,-1.9769,-1.9748,-1.9697,-1.9682,-1.9671,-1.9638,-1.9628,-1.9597,-1.9586,-1.9555,-1.953,-1.9508,-1.9475,-1.9473,-1.9503,-1.9446,-1.9444,-1.9458,-1.9512,-1.9532,-1.9538,-1.9482,-1.9482,-1.9483,-1.9515,0,-1.9876,-1.9853,-1.981,-1.9801,-1.9783,-1.9733,-1.9723,-1.9691,-1.966,-1.9641,-1.9607,-1.9585,-1.9554,-1.9541,-1.9537,-1.9501,-1.9513,-1.9498,-1.947,-1.947,-1.9482,-1.9542,-1.9563,-1.9596,-1.9519,-1.9519,-1.952,0,-1.9916,-1.9887,-1.9877,-1.9826,-1.9818,-1.981,-1.9776,-1.9759,-1.9721,-1.9699,-1.9675,-1.9639,-1.9625,-1.9596,-1.9575,-1.9566,-1.9552,-1.9533,-1.9533,-1.9528,-1.9497,-1.9538,-1.9605,-1.961,-1.9525,-1.9525,-1.9524,0,-1.9979,-1.9938,-1.9926,-1.9909,-1.9851,-1.9846,-1.9822,-1.9783,-1.9766,-1.9737,-1.9725,-1.9695,-1.9679,-1.9656,-1.9613,-1.9596,-1.9597,-1.9564,-1.9577,-1.9579,-1.9579,-1.958,-1.9644,-1.9572,-1.9572,-1.9572,-1.9572,0,-2.0024,-2.0019,-1.9953,-1.9946,-1.9939,-1.9889,-1.9884,-1.9855,-1.9821,-1.9807,-1.9761,-1.9749,-1.9693,-1.9674,-1.964,-1.9628,-1.9621,-1.9602,-1.9593,-1.9606,-1.9608,-1.9595,-1.9592,-1.9573,-1.9573,-1.9573,-1.9572,0,-2.0093,-2.0048,-2.0032,-1.9978,-1.9964,-1.9962,-1.9915,-1.9906,-1.9873,-1.9856,-1.9849,-1.9797,-1.9773,-1.9728,-1.9691,-1.9668,-1.9663,-1.9647,-1.9675,-1.967,-1.9685,-1.9684,-1.9743,-1.9748,-1.9674,-1.9675,-1.9675,0,-2.0124,-2.0119,-2.0065,-2.0052,-2.0029,-2.0009,-1.9992,-1.9943,-1.9927,-1.9884,-1.988,-1.9852,-1.9827,-1.9791,-1.9749,-1.9721,-1.9704,-1.9727,-1.9699,-1.9712,-1.9704,-1.9704,-1.9703,-1.9733,-1.9734,-1.9735,-1.9735,0,-2.0184,-2.0162,-2.0139,-2.0108,-2.0089,-2.0062,-2.0033,-2.0026,-1.997,-1.9954,-1.9929,-1.9909,-1.9871,-1.9844,-1.981,-1.9784,-1.9751,-1.9744,-1.9746,-1.9758,-1.9775,-1.9765,-1.9692,-1.9743,-1.9742,-1.9742,-1.9741,-1.9741,-2.0234,-2.0227,-2.0188,-2.0164,-2.0137,-2.0111,-2.01,-2.0065,-2.0043,-2.0008,-1.9981,-1.9958,-1.992,-1.987,-1.9847,-1.9828,-1.9812,-1.9814,-1.9815,-1.9816,-1.9821,-1.9779,-1.9822,-1.9821,-1.9821,-1.9821,-1.9821,0,-2.0291,-2.0264,-2.0242,-2.0203,-2.0183,-2.0154,-2.012,-2.0106,-2.0086,-2.0054,-2.003,-2.0001,-1.9975,-1.9932,-1.9902,-1.9895,-1.9879,-1.9889,-1.9888,-1.9883,-1.9837,-1.9839,-1.9902,-1.9902,-1.9902,-1.9902,-1.9902,-1.9902,-2.0319,-2.0306,-2.028,-2.0253,-2.0225,-2.0202,-2.0185,-2.0161,-2.0135,-2.0104,-2.0082,-2.0054,-2.0018,-1.9985,-1.9959,-1.9947,-1.9938,-1.9953,-1.9936,-1.9894,-1.9886,-1.9879,-1.988,-1.9951,-1.9952,-1.9983,-1.9984,-1.9984]},{"header":{"parameterUnit":"m.s-1","parameterCategory":1,"la1":30.2991,"la2":30.254,"lo1":-89.0895,"lo2":-89.0444,"dy":0.0017,"dx":0.0017,"nx":28,"ny":28,"refTime":"2024-05-22T09:00:00:Z","depth":0,"parameterNumber":3,"parameterNumberName":"V-component_of_WINDS"},"data":[0,0,0,0,0,0,0,0,0,0,0,0,0,0,0,0,0,0,0,0,0,0,0,0,0,0,0,0,0,0,0,0,0,0,0,0,0,0,0,0,0,0,0,0,0,0,0,0,0,0,0,0,0,0,0,0,0,0,5.2447,5.2447,0,5.2404,5.2403,5.2403,5.2295,5.2292,5.229,5.2288,5.2246,5.2247,5.2248,0,0,0,0,0,0,0,0,0,0,0,0,0,5.2439,5.2439,5.2447,5.2447,5.2446,5.2404,5.2403,5.2403,5.2295,5.2292,5.229,5.2287,5.2246,5.2247,5.2248,0,0,0,0,0,0,0,0,0,0,0,0,0,5.2424,5.244,5.2447,5.2387,5.2381,5.2404,5.2403,5.2403,5.2296,5.2292,5.2289,5.2286,5.2245,5.2247,5.2248,5.2327,0,0,5.2253,5.2254,0,0,0,0,0,0,0,0,5.2425,5.2424,5.2397,5.2391,5.2385,5.2351,5.2385,5.2377,5.2297,5.2328,5.2288,5.2284,5.2284,5.2282,5.2282,5.2325,5.2323,5.2253,5.2254,5.2255,5.2255,0,0,0,0,0,0,0,5.2426,5.2425,5.243,5.2396,5.2389,5.2363,5.2357,5.2383,5.2326,5.2325,5.2317,5.2314,5.228,5.228,5.228,5.2322,5.2253,5.2254,5.2255,5.2256,5.2426,5.243,0,0,0,0,0,0,5.2435,5.2427,5.2432,5.2429,5.2397,5.2366,5.2359,5.2366,5.2325,5.2316,5.2317,5.2309,5.2279,5.2278,5.2278,5.2366,5.2255,5.2256,5.2257,5.2423,5.2427,5.2431,0,0,0,0,0,0,5.2435,5.2437,5.2433,5.2426,5.2423,5.237,5.2378,5.2367,5.2366,5.2319,5.2308,5.2327,5.2277,5.2276,5.2315,5.2363,5.2257,5.2258,5.2419,5.2424,5.2429,5.2544,0,0,0,0,0,0,5.2436,5.2437,5.2466,5.2427,5.2424,5.2471,5.2381,5.2368,5.2369,5.2359,5.2326,5.2317,5.2274,5.2313,5.2317,5.2363,5.2259,5.2414,5.2421,5.2427,5.2535,5.2552,5.2567,0,0,0,0,0,5.2436,5.2501,5.2468,5.2469,5.2459,5.2474,5.2472,5.242,5.2374,5.2402,5.2371,5.2318,5.2358,5.2318,5.2321,5.2369,5.2411,5.2419,5.2427,5.2528,5.2549,5.2566,0,0,0,0,0,0,5.2548,5.2495,5.2458,5.2512,5.2498,5.2455,5.249,5.2444,5.2444,5.2434,5.237,5.2364,5.2412,5.2394,5.2351,5.2442,5.2375,5.2385,5.2452,5.2471,5.2486,5.2489,5.2261,0,0,0,0,0,5.2579,5.2595,5.2548,5.26,5.2595,5.2544,5.2549,5.251,5.2493,5.2487,5.2459,5.2446,5.2454,5.2462,5.2468,5.2533,5.2524,5.2567,5.2583,5.2596,5.2604,5.2637,5.2655,5.2458,5.2458,5.2458,0,0,5.2643,5.2616,5.263,5.2622,5.2607,5.2625,5.254,5.2563,5.2576,5.2491,5.2525,5.2505,5.2485,5.2538,5.2559,5.2524,5.2657,5.2606,5.2617,5.2618,5.2647,5.2666,5.2682,5.2463,5.2462,5.2461,0,0,5.2769,5.2751,5.2792,5.2778,5.2755,5.2721,5.2731,5.2695,5.2678,5.2711,5.2648,5.2663,5.268,5.2668,5.2665,5.2787,5.2738,5.2791,5.2873,5.2905,5.292,5.2934,5.2976,5.2993,5.2799,5.2799,5.28,0,5.2852,5.2876,5.2819,5.2846,5.2844,5.2767,5.2808,5.2798,5.2779,5.278,5.2741,5.276,5.2742,5.279,5.282,5.282,5.2829,5.2793,5.2923,5.2936,5.2947,5.2987,5.3004,5.2806,5.2805,5.2805,5.2804,0,5.2979,5.2997,5.3033,5.3016,5.3018,5.3052,5.3,5.301,5.2971,5.2941,5.2976,5.2952,5.2951,5.2959,5.2922,5.3002,5.2981,5.2934,5.2865,5.2974,5.301,5.3025,5.2815,5.2813,5.2811,5.2809,0,0,5.3175,5.3124,5.3139,5.3129,5.3099,5.3111,5.3142,5.314,5.3149,5.3139,5.3163,5.318,5.3135,5.3131,5.3092,5.3121,5.3218,5.3069,5.3068,5.3097,5.3304,5.3339,5.3358,5.3185,5.3188,5.319,5.3305,0,5.3293,5.3341,5.329,5.335,5.3365,5.3292,5.3319,5.3303,5.3276,5.3286,5.3256,5.3268,5.3209,5.3206,5.3231,5.3201,5.3258,5.3192,5.3207,5.3208,5.3213,5.3377,5.3414,5.3524,5.3319,5.3321,5.3323,0,5.3437,5.3432,5.3492,5.3457,5.3462,5.3487,5.348,5.3491,5.3472,5.345,5.3445,5.3398,5.3426,5.336,5.3397,5.3353,5.3357,5.3343,5.3346,5.3345,5.3272,5.3379,5.3557,5.3574,5.3345,5.3343,5.3342,0,5.3572,5.3581,5.3618,5.3612,5.3572,5.3591,5.3576,5.3553,5.3555,5.355,5.3551,5.355,5.3549,5.355,5.3503,5.346,5.3547,5.3477,5.3529,5.3531,5.355,5.355,5.3731,5.3554,5.3554,5.3554,5.3553,0,5.3709,5.3749,5.3678,5.3701,5.3743,5.3685,5.3729,5.3706,5.3686,5.3703,5.3641,5.3659,5.3596,5.3608,5.3572,5.3608,5.3608,5.3592,5.3581,5.3597,5.3599,5.3597,5.3588,5.3558,5.3557,5.3556,5.3556,0,5.3867,5.3821,5.3857,5.3816,5.3806,5.3839,5.3804,5.3824,5.3792,5.3815,5.3817,5.3768,5.3778,5.3732,5.3734,5.371,5.3764,5.3742,5.3771,5.3763,5.3818,5.3813,5.4004,5.4026,5.3837,5.3839,5.384,0,5.3957,5.3985,5.3947,5.3954,5.3941,5.3953,5.3954,5.3898,5.3902,5.3882,5.3904,5.3909,5.3909,5.3929,5.3894,5.3895,5.3872,5.3938,5.3871,5.3886,5.3872,5.387,5.3872,5.3952,5.3955,5.3957,5.3958,0,5.4121,5.4096,5.41,5.4096,5.4099,5.4094,5.4084,5.4093,5.4032,5.404,5.4049,5.405,5.4051,5.4057,5.4051,5.4035,5.3987,5.3979,5.3991,5.4007,5.4022,5.4014,5.3808,5.3975,5.3973,5.3972,5.3971,5.3971,5.4247,5.4268,5.4244,5.4251,5.4237,5.4229,5.4245,5.4216,5.4222,5.4218,5.4185,5.42,5.418,5.4167,5.4156,5.4167,5.4135,5.4153,5.4157,5.4163,5.4172,5.4021,5.4166,5.4165,5.4165,5.4164,5.4164,0,5.4407,5.4387,5.4394,5.4381,5.4386,5.434,5.4326,5.4334,5.4348,5.4332,5.4334,5.4344,5.4349,5.4314,5.4314,5.433,5.4308,5.4332,5.433,5.4327,5.42,5.4189,5.435,5.435,5.435,5.435,5.435,5.435,5.449,5.4524,5.4497,5.4524,5.4504,5.4518,5.4514,5.4507,5.4494,5.4508,5.4511,5.4488,5.4465,5.4463,5.4466,5.4455,5.4458,5.449,5.4472,5.4354,5.4336,5.4319,5.4308,5.4491,5.4491,5.4598,5.4599,5.4599]}]]